TimeMDT,TemperatureF,Dew PointF,Humidity,Sea Level PressureIn,VisibilityMPH,Wind Direction,Wind SpeedMPH,Gust SpeedMPH,PrecipitationIn,Events,Conditions,WindDirDegrees,DateUTC
12:53 AM,50.0,46.9,89,29.83,10.0,NW,4.6,-,N/A,,Clear,320,2014-06-01 06:53:00
1:53 AM,48.0,46.0,93,29.81,10.0,Calm,Calm,-,N/A,,Clear,0,2014-06-01 07:53:00
2:53 AM,46.9,45.0,93,29.80,10.0,NNW,3.5,-,N/A,,Clear,330,2014-06-01 08:53:00
3:53 AM,46.0,44.1,93,29.78,10.0,Calm,Calm,-,N/A,,Clear,0,2014-06-01 09:53:00
4:53 AM,48.9,44.1,83,29.79,10.0,Variable,3.5,-,N/A,,Scattered Clouds,0,2014-06-01 10:53:00
5:53 AM,50.0,45.0,83,29.81,10.0,NE,3.5,-,N/A,,Clear,40,2014-06-01 11:53:00
6:53 AM,53.1,46.9,80,29.79,10.0,NNW,5.8,-,N/A,,Clear,330,2014-06-01 12:53:00
7:53 AM,55.9,48.0,75,29.81,10.0,Calm,Calm,-,N/A,,Mostly Cloudy,0,2014-06-01 13:53:00
8:53 AM,57.0,48.0,72,29.81,10.0,Variable,3.5,-,N/A,,Overcast,0,2014-06-01 14:53:00
9:53 AM,61.0,46.9,60,29.81,10.0,ENE,4.6,-,N/A,,Mostly Cloudy,70,2014-06-01 15:53:00
10:31 AM,61.0,45.0,56,29.95,10.0,ENE,4.6,-,N/A,Thunderstorm,Overcast,70,2014-06-01 16:31:00
10:53 AM,57.9,46.0,65,29.83,10.0,South,4.6,-,0.00,Thunderstorm,Overcast,180,2014-06-01 16:53:00
11:07 AM,50.0,45.0,83,30.00,1.5,WNW,10.4,-,0.00,Rain-Thunderstorm,Heavy Thunderstorms and Rain,290,2014-06-01 17:07:00
11:22 AM,48.9,46.0,90,30.01,3.0,Variable,5.8,-,0.18,Rain-Thunderstorm,Thunderstorms and Rain,0,2014-06-01 17:22:00
11:25 AM,50.0,46.9,89,30.00,2.5,Variable,4.6,-,0.19,Rain-Thunderstorm,Rain,0,2014-06-01 17:25:00
11:32 AM,50.0,46.9,89,30.00,4.0,NNW,6.9,-,0.20,Rain-Thunderstorm,Light Rain,330,2014-06-01 17:32:00
11:53 AM,54.0,50.0,86,29.87,9.0,Variable,4.6,-,0.22,Rain,Light Rain,0,2014-06-01 17:53:00
12:53 PM,59.0,48.9,69,29.83,10.0,NNE,9.2,-,0.00,,Clear,30,2014-06-01 18:53:00
1:53 PM,62.1,48.9,62,29.82,10.0,Variable,3.5,-,N/A,,Partly Cloudy,0,2014-06-01 19:53:00
2:53 PM,57.9,51.1,78,29.83,3.0,Variable,3.5,-,0.00,Rain-Thunderstorm,Light Thunderstorms and Rain,0,2014-06-01 20:53:00
3:27 PM,57.2,48.2,72,29.95,10.0,SW,4.6,-,N/A,Thunderstorm,Overcast,220,2014-06-01 21:27:00
3:53 PM,55.0,50.0,83,29.88,10.0,SSW,5.8,-,0.01,Rain-Thunderstorm,Light Rain,210,2014-06-01 21:53:00
4:04 PM,54.0,48.9,83,29.98,8.0,West,15.0,26.5,0.00,Rain,Rain,260,2014-06-01 22:04:00
4:22 PM,55.9,44.1,64,29.98,10.0,WNW,12.7,33.4,0.01,,Overcast,300,2014-06-01 22:22:00
4:53 PM,57.0,42.1,57,29.88,10.0,NNW,12.7,20.7,0.01,,Mostly Cloudy,330,2014-06-01 22:53:00
5:53 PM,57.9,44.1,60,29.86,10.0,Variable,6.9,-,N/A,,Clear,0,2014-06-01 23:53:00
6:53 PM,57.0,43.0,59,29.85,10.0,North,8.1,-,N/A,,Clear,10,2014-06-02 00:53:00
7:53 PM,55.9,44.1,64,29.88,10.0,NNW,3.5,-,N/A,,Partly Cloudy,340,2014-06-02 01:53:00
9:53 PM,48.9,41.0,74,29.92,10.0,NNW,4.6,-,N/A,,Clear,330,2014-06-02 03:53:00
10:53 PM,43.0,39.9,89,29.95,10.0,Calm,Calm,-,N/A,,Clear,0,2014-06-02 04:53:00
11:53 PM,46.0,39.9,79,29.96,10.0,NNW,4.6,-,N/A,,Clear,340,2014-06-02 05:53:00